Kalaeloa, HI

1:52 AM HST on June 27, 2017 (GMT -1000)
Kalaeloa (John Rodgers Field)

Weather History for PHJR - February, 2013

Change the Weather History Date:

Thursday, February 28, 2013

  Actual Average (PHHI) Record (PHHI)
Temperature  
Mean Temperature 74 °F -  
Max Temperature 80 °F 74 °F 80 °F (1997)
Min Temperature 68 °F 61 °F 50 °F (1998)
Cooling Degree Days 9    
Growing Degree Days 24 (Base 50)    
Moisture  
Dew Point 57 °F    
Average Humidity 58    
Maximum Humidity 71    
Minimum Humidity 39    
Precipitation  
Precipitation 0.00 in - - ()
Sea Level Pressure  
Sea Level Pressure 30.19 in    
Wind  
Wind Speed 6 mph (ENE)    
Max Wind Speed 15 mph    
Max Gust Speed 29 mph    
Visibility 10 miles    
Events      
Averages and records for this station are not official NWS values.
T = Trace of Precipitation, MM = Missing Value Source: NWS Daily Summary

Daily Weather History Graph

Daily Weather History Graph

Search for Another Location

Airport or City:

Trip Planner

Search our weather history database for the weather conditions in past years. The results will help you decide how hot, cold, wet, or windy it might be!

Date:

Astronomy

Feb. 28, 2013 Rise Set
Actual Time 6:53 AM HST 6:36 PM HST
Civil Twilight 6:30 AM HST 6:58 PM HST
Nautical Twilight 6:05 AM HST 7:24 PM HST
Astronomical Twilight 5:39 AM HST 7:50 PM HST
Moon 9:40 PM HST (2/28) 8:40 AM HST (2/28)
Length of Visible Light 12h 27m
Length of Day
11h 43m
Waning Gibbous, 89% of the Moon is Illuminated
Feb 28
Waning Gibbous
Mar 4
Last Quarter
Mar 11
New
Mar 19
First Quarter
Mar 26
Full

Hourly Weather History & Observations

Time (HST) Temp. Heat Index Dew Point Humidity Pressure Visibility Wind Dir Wind Speed Gust Speed Precip Events Conditions
12:53 AM 70.0 °F - 57.0 °F 63% 30.18 in 10.0 mi ENE 4.6 mph - N/A   Clear
1:53 AM 70.0 °F - 59.0 °F 68% 30.17 in 10.0 mi Variable 3.5 mph - N/A   Mostly Cloudy
2:53 AM 70.0 °F - 57.0 °F 63% 30.16 in 10.0 mi ENE 5.8 mph - N/A   Clear
3:53 AM 68.0 °F - 55.9 °F 65% 30.16 in 10.0 mi ENE 4.6 mph - N/A   Clear
4:53 AM 68.0 °F - 55.0 °F 63% 30.16 in 10.0 mi ENE 3.5 mph - N/A   Clear
5:53 AM 69.1 °F - 57.9 °F 68% 30.17 in 10.0 mi ENE 6.9 mph - N/A   Clear
6:53 AM 70.0 °F - 60.1 °F 71% 30.18 in 10.0 mi Variable 4.6 mph - N/A   Scattered Clouds
7:53 AM 72.0 °F - 59.0 °F 64% 30.20 in 10.0 mi ENE 8.1 mph - N/A   Partly Cloudy
8:53 AM 75.0 °F - 59.0 °F 57% 30.22 in 10.0 mi ENE 11.5 mph 23.0 mph N/A   Scattered Clouds
9:53 AM 77.0 °F - 53.1 °F 43% 30.22 in 10.0 mi East 15.0 mph 28.8 mph N/A   Clear
10:53 AM 79.0 °F - 55.9 °F 45% 30.21 in 10.0 mi East 12.7 mph 23.0 mph N/A   Scattered Clouds
11:53 AM 79.0 °F - 57.0 °F 47% 30.21 in 10.0 mi ENE 9.2 mph 20.7 mph N/A   Mostly Cloudy
12:53 PM 80.1 °F 79.9 °F 53.1 °F 39% 30.18 in 10.0 mi ENE 9.2 mph 18.4 mph N/A   Partly Cloudy
1:53 PM 79.0 °F - 55.0 °F 44% 30.16 in 10.0 mi ENE 9.2 mph 23.0 mph N/A   Mostly Cloudy
2:53 PM 79.0 °F - 55.9 °F 45% 30.14 in 10.0 mi ENE 10.4 mph 20.7 mph N/A   Clear
3:53 PM 79.0 °F - 57.0 °F 47% 30.14 in 10.0 mi ENE 10.4 mph 20.7 mph N/A   Partly Cloudy
4:53 PM 77.0 °F - 57.9 °F 52% 30.15 in 10.0 mi ENE 10.4 mph 19.6 mph N/A   Clear
5:53 PM 75.0 °F - 55.9 °F 51% 30.17 in 10.0 mi Variable 5.8 mph - N/A   Clear
6:53 PM 72.0 °F - 57.9 °F 61% 30.20 in 10.0 mi Variable 5.8 mph - N/A   Partly Cloudy
7:53 PM 71.1 °F - 57.9 °F 63% 30.22 in 10.0 mi Variable 4.6 mph - N/A   Partly Cloudy
8:53 PM 71.1 °F - 59.0 °F 66% 30.23 in 10.0 mi Variable 4.6 mph - 0.00 in   Overcast
9:53 PM 71.1 °F - 59.0 °F 66% 30.24 in 10.0 mi Variable 4.6 mph - N/A   Partly Cloudy
10:53 PM 70.0 °F - 57.9 °F 65% 30.23 in 10.0 mi Calm Calm - N/A   Partly Cloudy
11:53 PM 70.0 °F - 57.9 °F 65% 30.23 in 10.0 mi ENE 4.6 mph - N/A   Mostly Cloudy